GW3863 Weather Reports


time (UTC)temp
C
wind
direction
speed
KPH
gust
KPH
rain 1hr
cm
rain 24hr
cm
rain mn
cm
humidity
%
barometer
mb
20260906231521 18 360 3.2 12.9 0.00 0.05 0.05 74 1009.6
20260906230022 18 360 4.8 14.5 0.00 0.05 0.05 75 1009.7
20260906224518 17 360 4.8 14.5 0.00 0.05 0.05 76 1009.8
20260906223026 17 360 8.0 16.1 0.00 0.05 0.05 77 1010.0
20260906221517 17 360 9.7 16.1 0.00 0.05 0.05 78 1010.2
20260906220028 17 360 4.8 12.9 0.00 0.05 0.05 78 1010.2
20260906214526 17 360 6.4 14.5 0.00 0.05 0.05 79 1010.2
20260906213015 17 360 8.0 17.7 0.00 0.05 0.05 79 1010.1
20260906211515 16 360 6.4 22.5 0.00 0.05 0.05 81 1010.1
20260906210016 17 360 11.3 20.9 0.00 0.05 0.05 79 1010.0
20260906204512 18 360 3.2 9.7 0.00 0.05 0.05 74 1010.1
20260906203011 18 360 3.2 8.0 0.00 0.05 0.05 74 1010.2
20260906201508 17 360 1.6 9.7 0.00 0.05 0.05 74 1010.3
20260906200008 17 360 4.8 9.7 0.00 0.05 0.05 74 1010.4
20260906194505 17 360 1.6 9.7 0.00 0.05 0.05 76 1010.6
20260906193002 17 360 0.0 6.4 0.00 0.05 0.05 78 1010.8
20260906191559 16 360 3.2 6.4 0.00 0.05 0.05 78 1010.9
20260906190138 16 360 4.8 8.0 0.00 0.05 0.05 79 1011.2
20260906184555 16 360 1.6 14.5 0.00 0.05 0.05 81 1011.3
20260906183059 16 360 6.4 16.1 0.00 0.05 0.05 81 1011.5
20260906181553 16 360 11.3 19.3 0.00 0.05 0.05 82 1011.4
20260906180049 15 360 9.7 16.1 0.00 0.05 0.05 82 1011.7
20260906174547 15 360 11.3 22.5 0.00 0.05 0.05 83 1011.7
20260906173048 15 360 8.0 14.5 0.00 0.05 0.05 81 1012.1
20260906171544 14 360 4.8 12.9 0.00 0.05 0.05 85 1012.5
20260906170039 13 360 9.7 19.3 0.00 0.05 0.05 86 1012.7
20260906164538 13 360 9.7 19.3 0.00 0.05 0.05 87 1013.0
20260906163037 13 360 14.5 20.9 0.00 0.05 0.05 88 1013.1
20260906161536 12 360 12.9 20.9 0.00 0.05 0.05 89 1013.0
20260906160036 12 360 14.5 22.5 0.00 0.05 0.05 89 1013.2
20260906154538 12 360 14.5 29.0 0.00 0.05 0.05 90 1013.2
20260906153037 12 360 17.7 25.7 0.00 0.05 0.05 91 1013.1
20260906151533 13 360 11.3 20.9 0.03 0.05 0.05 92 1013.4
20260906150034 13 360 9.7 17.7 0.05 0.05 0.05 93 1013.5
20260906144528 13 360 8.0 17.7 0.05 0.05 0.05 93 1013.5
20260906143031 13 360 6.4 16.1 0.05 0.05 0.05 92 1013.6
20260906141525 13 360 4.8 9.7 0.03 0.03 0.03 92 1013.7
20260906140040 13 360 1.6 6.4 0.00 0.00 0.00 91 1013.6
20260906134525 13 360 1.6 4.8 0.00 0.00 0.00 90 1013.7
20260906133024 13 360 0.0 1.6 0.00 0.00 0.00 89 1013.7
20260906131532 14 360 0.0 1.6 0.00 0.00 0.00 87 1013.7
20260906130022 14 360 0.0 3.2 0.00 0.00 0.00 85 1013.8
20260906124521 14 360 0.0 4.8 0.00 0.00 0.00 83 1013.5
20260906123020 14 360 0.0 3.2 0.00 0.00 0.00 83 1013.6
20260906121520 15 360 0.0 4.8 0.00 0.00 0.00 83 1013.5
20260906120023 15 360 0.0 6.4 0.00 0.00 0.00 82 1013.6
20260906114526 15 360 8.0 16.1 0.00 0.00 0.00 82 1013.0
20260906113019 15 360 9.7 16.1 0.00 0.00 0.00 82 1013.0
20260906111518 15 360 11.3 17.7 0.00 0.00 0.00 81 1013.1
20260906110017 15 360 4.8 16.1 0.00 0.00 0.00 81 1013.1
20260906104518 15 360 6.4 24.1 0.00 0.00 0.00 80 1013.1
20260906103016 15 360 6.4 17.7 0.00 0.00 0.00 80 1013.2
20260906101516 15 360 9.7 17.7 0.00 0.00 0.00 79 1013.3
20260906100014 15 360 6.4 14.5 0.00 0.00 0.00 79 1013.4
20260906094513 15 360 0.0 12.9 0.00 0.00 0.00 79 1013.4
20260906093037 15 360 6.4 14.5 0.00 0.00 0.00 80 1013.2
20260906091512 15 360 4.8 14.5 0.00 0.00 0.00 80 1013.1
20260906090015 15 360 6.4 16.1 0.00 0.00 0.00 80 1013.2
20260906084511 14 360 0.0 4.8 0.00 0.00 0.00 81 1013.4
20260906083011 14 360 0.0 8.0 0.00 0.00 0.00 81 1013.5
20260906081506 14 360 1.6 8.0 0.00 0.00 0.00 80 1013.7
20260906080004 14 360 0.0 8.0 0.00 0.00 0.00 80 1014.1
20260906074504 14 360 0.0 3.2 0.00 0.00 0.00 80 1014.4
20260906073059 14 360 0.0 4.8 0.00 0.00 0.00 81 1014.6
20260906071557 13 360 0.0 3.2 0.00 0.00 0.00 83 1014.8
20260906070056 13 294 1.6 6.4 0.00 0.00 0.00 83 1014.8
20260906064556 13 292 3.2 12.9 0.00 0.00 0.00 82 1014.9
20260906063056 13 360 8.0 16.1 0.00 0.00 0.00 82 1014.7
20260906061601 13 360 9.7 25.7 0.00 0.00 0.00 81 1014.8
20260906060049 13 360 17.7 24.1 0.00 0.00 0.00 80 1014.9
20260906054549 14 360 14.5 22.5 0.00 0.00 0.00 79 1014.8
20260906053104 14 360 12.9 19.3 0.00 0.00 0.00 74 1014.6
20260906051548 15 360 11.3 22.5 0.00 0.00 0.00 71 1014.5
20260906050047 15 360 9.7 16.1 0.00 0.00 0.00 71 1014.4
20260906044547 15 360 6.4 14.5 0.00 0.00 0.00 69 1014.2
20260906043049 15 360 9.7 24.1 0.00 0.00 0.00 67 1014.1
20260906041553 15 360 6.4 14.5 0.00 0.00 0.00 67 1014.1
20260906040046 16 360 9.7 17.7 0.00 0.00 0.00 65 1014.3
20260906034546 16 360 20.9 35.4 0.00 0.00 0.00 64 1013.0
20260906033047 17 360 12.9 32.2 0.00 0.00 0.00 63 1013.1
20260906031544 17 360 4.8 24.1 0.00 0.00 0.00 61 1013.1
20260906030050 18 360 8.0 30.6 0.00 0.00 0.00 59 1012.8
20260906024605 18 360 12.9 25.7 0.00 0.00 0.00 55 1012.6
20260906023047 20 360 16.1 29.0 0.00 0.00 0.00 50 1012.5
20260906021542 21 360 8.0 14.5 0.00 0.00 0.00 41 1011.8
20260906020042 21 360 6.4 17.7 0.00 0.00 0.00 41 1011.4
20260906014549 21 360 11.3 17.7 0.00 0.00 0.00 39 1011.1
20260906013041 22 360 8.0 22.5 0.00 0.00 0.00 37 1011.3
20260906011553 23 360 17.7 24.1 0.00 0.00 0.00 36 1011.1
20260906010100 23 42 14.5 24.1 0.00 0.00 0.00 35 1011.2
20260906004545 24 360 16.1 25.7 0.00 0.00 0.00 34 1011.3
20260906003043 25 59 14.5 22.5 0.00 0.00 0.00 33 1011.4
20260906001556 25 360 16.1 24.1 0.00 0.00 0.00 33 1011.5
20260906000036 25 360 17.7 27.4 0.00 0.00 0.00 33 1011.7
20260905234535 24 36 8.0 25.7 0.00 0.00 0.00 34 1011.5
20260905233033 24 360 11.3 19.3 0.00 0.00 0.00 34 1011.7